Regional Weather Roundup
Issued by NWS Northern Indiana

Home | Current Version | Previous Version | Text Only | Print | Product List | Glossary Off
Versions: 1 2 3 4 5 6 7 8 9 10 11 12 13 14 15 16 17 18 19 20 21 22 23 24 25 26 27 28 29 30 31 32 33 34 35 36 37 38 39 40 41 42 43 44 45 46 47 48 49 50

000
ASUS43 KIWX 180310
RWRIWX

KIWX WEATHER ROUNDUP
NATIONAL WEATHER SERVICE NORTHERN INDIANA
1000 PM EST WED DEC 17 2014

NOTE: "FAIR" INDICATES FEW OR NO CLOUDS BELOW 12,000 FEET WITH NO
SIGNIFICANT WEATHER AND/OR OBSTRUCTIONS TO VISIBILITY.

* THESE STATIONS ARE NOT UNDER NWS QUALITY CONTROL. THEY ALSO MAY NOT
  REPORT WEATHER SUCH AS PRECIPITATION OR FOG.

INZ001>027-180400-
NORTHERN INDIANA

CITY           SKY/WX    TMP DP  RH WIND       PRES   REMARKS
GARY*          PTCLDY    26  17  70 W5        30.28S WCI  20
VALPARAISO     CLOUDY    25  17  72 W8        30.26S WCI  16
MICHIGAN CITY* CLOUDY    28  19  69 W7        30.26S WCI  21
LAPORTE*       CLOUDY    28  21  75 W5        30.26S WCI  23
KNOX*          CLOUDY    26  19  73 W8        30.25S WCI  18
SOUTH BEND     CLOUDY    29  20  69 W7        30.24S WCI  22
GOSHEN         CLOUDY    27  21  78 W14       30.22S WCI  16
MONTICELLO*    CLOUDY    26  20  76 W6        30.27S WCI  19
LOGANSPORT*    CLOUDY    27  18  69 NW5       30.28S WCI  21
ROCHESTER*     CLOUDY    30  23  74 W8        30.26S WCI  23
WARSAW*        CLOUDY    27  21  80 W10       30.24S WCI  17
ANGOLA*        CLOUDY    27  19  74 NW8       30.19S WCI  18
FORT WAYNE     CLOUDY    27  21  78 W13       30.24S WCI  16
HUNTINGTON*    CLOUDY    26  21  82 W7        30.24S WCI  18
PERU/GRISSOM   CLOUDY    26  23  88 NW8       30.25S WCI  18
MARION*        CLOUDY    26  22  85 NW6       30.26S WCI  19

$$
INZ028>050-180400-
CENTRAL INDIANA

CITY           SKY/WX    TMP DP  RH WIND       PRES   REMARKS
LAFAYETTE      CLOUDY    25  19  78 NW6       30.29S WCI  18
KOKOMO*        CLOUDY    27  18  69 NW10      30.26F WCI  17
MUNCIE*        CLOUDY    25  20  81 W8        30.26S WCI  16
INDIANAPOLIS   FLURRIES  24  18  77 NW8       30.27F WCI  15

$$
MIZ043>046-050>051-056>058-064>065-071>073-077>080-180400-
SOUTHWEST LOWER MICHIGAN

CITY           SKY/WX    TMP DP  RH WIND       PRES   REMARKS
BATTLE CREEK   CLOUDY    29  19  66 W9        30.18S WCI  20
BENTON HARBOR  CLOUDY    28  20  71 NW8       30.23S WCI  20
COLDWATER*     CLOUDY    28  20  72 NW10G18   30.18S WCI  19
HILLSDALE*     CLOUDY    28  21  76 NW13G22   30.15F WCI  17
HOLLAND        CLOUDY    31  21  66 NW12      30.21R WCI  22
GRAND RAPIDS   CLOUDY    28  20  71 W9        30.17S WCI  19
KALAMAZOO      CLOUDY    29  20  69 NW10      30.20R WCI  20
STURGIS*       CLOUDY    27  19  74 NW12      30.20R WCI  16
THREE RIVERS*  CLOUDY    29  21  71 NW10G18   30.21S WCI  19

$$
OHZ001>008-015>018-024>025-180400-
NORTHWEST OHIO

CITY           SKY/WX    TMP DP  RH WIND       PRES   REMARKS
WAUSEON*       CLOUDY    28  21  74 W13       30.19R WCI  18
FINDLAY        CLOUDY    28  23  81 W15       30.20R WCI  16
TOLEDO EXPRESS CLOUDY    29  21  72 W9        30.19R WCI  20
TOLEDO METCALF CLOUDY    30  19  63 W15       30.20R WCI  19
LIMA           CLOUDY    30  21  69 W14       30.21S WCI  19

$$
AND FOR LAKE MICHIGAN COASTAL AND OPEN LAKE BUOY OBSERVATIONS

STATION/POSITION TEMP    WIND        PRES    VSBY  WAVE
                 AIR SEA DIR/SP/G                  HT/PER
                 (F)     (DEG/KT/KT) (MB)    (MI)  (FT/S)
CALUMET HARBOR    25     310/  7/ 11 1023.4F
SAINT JOSEPH      30     270/ 12/ 16 1024.7S

$$
&&



USA.gov is the U.S. government's official web portal to all federal, state and local government web resources and services.